TimeEDT,TemperatureF,Dew PointF,Humidity,Sea Level PressureIn,VisibilityMPH,Wind Direction,Wind SpeedMPH,Gust SpeedMPH,PrecipitationIn,Events,Conditions,WindDirDegrees,DateUTC
12:58 AM,62.4,58.5,87,30.00,10.0,WNW,3.5,-,N/A,,Mostly Cloudy,290,2013-08-02 04:58:00
1:58 AM,60.8,57.4,88,29.99,10.0,SSW,2.3,-,N/A,,Clear,200,2013-08-02 05:58:00
2:58 AM,56.7,56.7,100,29.97,10.0,WSW,3.5,-,N/A,,Clear,240,2013-08-02 06:58:00
3:58 AM,56.8,56.1,97,29.96,10.0,SSE,4.6,-,N/A,,Clear,150,2013-08-02 07:58:00
4:58 AM,57.6,57.6,100,29.97,10.0,South,2.3,-,N/A,,Overcast,190,2013-08-02 08:58:00
5:58 AM,59.9,58.3,94,29.98,10.0,SSW,2.3,-,N/A,,Overcast,210,2013-08-02 09:58:00
6:35 AM,60.8,57.2,88,29.98,10.0,Calm,Calm,-,N/A,Rain,Light Rain,0,2013-08-02 10:35:00
6:49 AM,60.8,59.0,94,29.97,10.0,East,3.5,-,N/A,,Mostly Cloudy,80,2013-08-02 10:49:00
6:58 AM,61.0,59.4,94,29.97,10.0,ESE,4.6,-,0.00,,Mostly Cloudy,120,2013-08-02 10:58:00
7:42 AM,60.8,60.8,100,29.97,10.0,SE,3.5,-,N/A,,Light Drizzle,130,2013-08-02 11:42:00
7:58 AM,61.7,59.9,94,29.96,10.0,SSE,5.8,-,0.00,,Light Drizzle,150,2013-08-02 11:58:00
8:05 AM,62.6,59.0,88,29.95,10.0,SSE,6.9,-,N/A,,Mostly Cloudy,150,2013-08-02 12:05:00
8:58 AM,63.7,59.5,86,29.95,10.0,South,6.9,-,0.00,,Mostly Cloudy,180,2013-08-02 12:58:00
9:58 AM,66.9,60.1,79,29.96,10.0,South,8.1,-,N/A,,Scattered Clouds,180,2013-08-02 13:58:00
10:58 AM,69.3,61.0,75,29.98,10.0,South,3.5,-,N/A,,Partly Cloudy,190,2013-08-02 14:58:00
11:58 AM,72.7,63.1,72,29.98,10.0,SW,6.9,-,N/A,,Scattered Clouds,220,2013-08-02 15:58:00
12:58 PM,75.7,64.4,68,29.97,10.0,SSW,10.4,-,N/A,,Scattered Clouds,210,2013-08-02 16:58:00
1:58 PM,81.5,65.1,57,29.94,10.0,SW,23.0,27.6,N/A,,Clear,230,2013-08-02 17:58:00
2:58 PM,83.3,67.5,59,29.92,10.0,SW,21.9,27.6,N/A,,Partly Cloudy,230,2013-08-02 18:58:00
3:58 PM,83.7,68.5,60,29.91,10.0,SW,25.3,31.1,N/A,,Mostly Cloudy,230,2013-08-02 19:58:00
4:36 PM,78.8,68.0,69,29.90,10.0,SW,27.6,32.2,N/A,Rain,Light Rain,230,2013-08-02 20:36:00
4:48 PM,78.8,68.0,69,29.90,10.0,WSW,21.9,32.2,N/A,,Mostly Cloudy,240,2013-08-02 20:48:00
4:58 PM,79.9,68.0,67,29.90,10.0,SW,24.2,32.2,0.00,,Mostly Cloudy,230,2013-08-02 20:58:00
5:58 PM,80.1,68.9,69,29.89,10.0,SW,24.2,31.1,N/A,,Mostly Cloudy,230,2013-08-02 21:58:00
6:58 PM,76.6,68.2,75,29.90,10.0,SW,19.6,26.5,N/A,,Mostly Cloudy,230,2013-08-02 22:58:00
7:58 PM,76.3,68.0,75,29.91,10.0,SW,17.3,24.2,N/A,,Mostly Cloudy,230,2013-08-02 23:58:00
8:58 PM,74.8,67.8,79,29.92,10.0,SW,13.8,-,N/A,,Mostly Cloudy,230,2013-08-03 00:58:00
9:58 PM,73.0,67.1,82,29.92,10.0,SW,11.5,-,N/A,,Mostly Cloudy,220,2013-08-03 01:58:00
10:58 PM,71.6,66.4,84,29.92,10.0,SW,9.2,-,N/A,,Scattered Clouds,220,2013-08-03 02:58:00
11:11 PM,71.6,66.2,83,29.93,10.0,SW,9.2,-,N/A,Rain,Light Rain,230,2013-08-03 03:11:00
11:40 PM,69.8,68.0,94,29.95,7.0,West,8.1,-,N/A,Rain-Thunderstorm,Thunderstorms and Rain,260,2013-08-03 03:40:00
11:50 PM,69.8,68.0,94,29.95,4.0,WNW,8.1,-,N/A,Rain-Thunderstorm,Thunderstorms and Rain,300,2013-08-03 03:50:00
11:55 PM,69.8,68.0,94,29.96,4.0,North,16.1,20.7,N/A,Rain-Thunderstorm,Thunderstorms and Rain,10,2013-08-03 03:55:00
11:56 PM,69.8,68.0,94,29.96,4.0,North,15.0,20.7,N/A,Rain-Thunderstorm,Heavy Thunderstorms and Rain,10,2013-08-03 03:56:00
11:58 PM,70.0,68.4,95,29.95,4.0,NNE,16.1,20.7,0.09,Rain-Thunderstorm,Heavy Thunderstorms and Rain,20,2013-08-03 03:58:00